Change the Weather History Date:

Monday, April 22, 2013

  Actual Average Record
Temperature  
Mean Temperature 62 °F -  
Max Temperature 78 °F 79 °F 88 °F (1955)
Min Temperature 48 °F 56 °F 35 °F (1999)
Degree Days  
Heating Degree Days 2    
Growing Degree Days 12 (Base 50)    
Moisture  
Dew Point 51 °F    
Average Humidity 66    
Maximum Humidity 94    
Minimum Humidity 39    
Precipitation  
Precipitation 0.00 in - - ()
Sea Level Pressure  
Sea Level Pressure 30.08 in    
Wind  
Wind Speed 4 mph (ESE)    
Max Wind Speed 12 mph    
Max Gust Speed 18 mph    
Visibility 10 miles    
Events      
Averages and records for this station are not official NWS values.
T = Trace of Precipitation, MM = Missing Value Source: NWS Daily Summary

Daily Weather History Graph

Daily Weather History Graph

Search for Another Location

Airport or City:

Trip Planner

Search our weather history database for the weather conditions in past years. The results will help you decide how hot, cold, wet, or windy it might be!

Date:

Astronomy

Apr. 22, 2013 Rise Set
Actual Time 6:25 AM CDT 7:35 PM CDT
Civil Twilight 6:00 AM CDT 8:00 PM CDT
Nautical Twilight 5:30 AM CDT 8:30 PM CDT
Astronomical Twilight 4:59 AM CDT 9:01 PM CDT
Moon 4:35 PM CDT (4/22) 4:07 AM CDT (4/22)
Length of Visible Light 13h 59m
Length of Day
13h 09m
Waxing Gibbous, 88% of the Moon is Illuminated
Apr 22
Waxing Gibbous
Apr 25
Full
May 2
Last Quarter
May 9
New
May 17
First Quarter

Hourly Weather History & Observations

Time (CDT) Temp. Dew Point Humidity Pressure Visibility Wind Dir Wind Speed Gust Speed Precip Events Conditions
12:53 AM 50.0 °F 46.0 °F 86% 30.14 in 10.0 mi Calm Calm - N/A   Clear
1:53 AM 48.0 °F 46.0 °F 93% 30.12 in 10.0 mi Calm Calm - N/A   Clear
2:53 AM 52.0 °F 46.9 °F 83% 30.12 in 10.0 mi North 3.5 mph - N/A   Clear
3:53 AM 53.1 °F 46.9 °F 80% 30.10 in 10.0 mi North 4.6 mph - N/A   Clear
4:53 AM 52.0 °F 45.0 °F 77% 30.10 in 10.0 mi North 4.6 mph - N/A   Clear
5:53 AM 52.0 °F 43.0 °F 71% 30.12 in 10.0 mi North 4.6 mph - N/A   Clear
6:53 AM 52.0 °F 43.0 °F 71% 30.13 in 10.0 mi NNE 3.5 mph - N/A   Clear
7:53 AM 55.0 °F 45.0 °F 69% 30.13 in 10.0 mi ENE 4.6 mph - N/A   Clear
8:53 AM 61.0 °F 46.0 °F 58% 30.14 in 10.0 mi East 5.8 mph - N/A   Clear
9:53 AM 66.0 °F 44.1 °F 45% 30.15 in 10.0 mi East 6.9 mph - N/A   Clear
10:53 AM 72.0 °F 48.0 °F 43% 30.15 in 10.0 mi East 6.9 mph - N/A   Clear
11:53 AM 73.0 °F 48.9 °F 42% 30.14 in 10.0 mi SSE 5.8 mph - N/A   Clear
12:53 PM 75.0 °F 52.0 °F 44% 30.11 in 10.0 mi Variable 5.8 mph - N/A   Scattered Clouds
1:53 PM 75.9 °F 51.1 °F 42% 30.09 in 10.0 mi Variable 4.6 mph - N/A   Clear
2:53 PM 77.0 °F 51.1 °F 40% 30.06 in 10.0 mi South 9.2 mph - N/A   Partly Cloudy
3:53 PM 77.0 °F 50.0 °F 39% 30.04 in 10.0 mi Calm Calm - N/A   Partly Cloudy
4:53 PM 77.0 °F 50.0 °F 39% 30.02 in 10.0 mi Variable 4.6 mph - N/A   Partly Cloudy
5:53 PM 75.9 °F 52.0 °F 43% 30.01 in 10.0 mi South 10.4 mph - N/A   Clear
6:53 PM 73.0 °F 55.0 °F 53% 30.01 in 10.0 mi SSE 4.6 mph - N/A   Clear
7:53 PM 69.1 °F 57.0 °F 65% 30.01 in 10.0 mi Calm Calm - N/A   Clear
8:53 PM 66.0 °F 59.0 °F 78% 30.04 in 10.0 mi SSE 3.5 mph - N/A   Clear
9:53 PM 63.0 °F 59.0 °F 87% 30.05 in 10.0 mi SSE 3.5 mph - N/A   Clear
10:53 PM 63.0 °F 60.1 °F 90% 30.04 in 10.0 mi SSE 8.1 mph - N/A   Clear
11:35 PM 62.6 °F 60.8 °F 94% 30.06 in 10.0 mi SSE 9.2 mph - N/A   Scattered Clouds
11:43 PM 62.6 °F 60.8 °F 94% 30.06 in 10.0 mi SSE 11.5 mph 18.4 mph N/A   Mostly Cloudy
11:53 PM 63.0 °F 61.0 °F 93% 30.05 in 10.0 mi SSE 11.5 mph - N/A   Overcast